Terminal Aerodrome Forecast
Issued by NWS

Home | Current Version | Previous Version | Text Only | Print | Product List | Glossary On
Versions: 1 2 3 4 5 6 7 8 9 10 11 12 13 14
000
FTAK31 PAJN 031127
TAFAGY
TAF
PAGY 031127Z 0312/0412 VRB02KT P6SM FEW080
     FM031600 04007KT P6SM SKC
     FM032100 21008KT P6SM SCT220
     FM040500 VRB03KT P6SM BKN200
     FM041000 VRB02KT P6SM OVC080
      AMD LTD TO CLD VIS AND WIND=

USA.gov is the U.S. government's official web portal to all federal, state and local government web resources and services.